Location: Oberstdorf
(47.4188°N, 10.2969°E)
Time: 15:43:07
(UTC+01:00)

ISS - Pass Details

Date: 18 November 2017
Orbit: 402 x 407 km, 51.6° (Epoch: 23 November)

Event Time Altitude Azimuth Distance (km) Brightness Sun altitude
Exits shadow 05:31:11 15° 191° (S) 1,203 -1.5 -19.5°
Drops below altitude 10° 05:32:08 10° 176° (S) 1,448 -0.9 -19.4°
Sets 05:34:37 0° 157° (SSE) 2,302 0.4 -18.9°
